CST,Max TemperatureF,Mean TemperatureF,Min TemperatureF,Max Dew PointF,MeanDew PointF,Min DewpointF,Max Humidity, Mean Humidity, Min Humidity, Max Sea Level PressureIn, Mean Sea Level PressureIn, Min Sea Level PressureIn, Max VisibilityMiles, Mean VisibilityMiles, Min VisibilityMiles, Max Wind SpeedMPH, Mean Wind SpeedMPH, Max Gust SpeedMPH,PrecipitationIn, CloudCover, Events, WindDirDegrees
2012-2-1,32,30,28,30,29,27,100,96,93,30.14,30.09,29.98,10,3,0,13,5,17,0.00,8,Fog,297
2012-2-2,32,29,26,32,28,27,100,96,93,30.36,30.26,30.17,5,0,0,8,2,,0.00,8,Fog-Snow,129
2012-2-3,30,29,28,30,29,28,100,97,93,30.46,30.42,30.38,5,2,0,13,5,,0.00,8,Fog-Snow,69
2012-2-4,39,32,26,27,26,23,93,79,52,30.40,30.32,30.27,10,8,3,12,8,16,0.00,3,,32
2012-2-5,30,28,26,27,27,25,100,94,86,30.36,30.32,30.28,7,5,2,10,5,,0.00,8,,317
2012-2-6,35,30,24,28,26,25,100,91,70,30.24,30.16,30.10,10,5,1,10,6,17,0.00,5,,242
2012-2-7,30,26,21,27,22,16,93,79,69,30.45,30.37,30.19,10,9,3,14,5,17,0.00,7,,27
2012-2-8,28,20,12,14,10,7,92,64,40,30.46,30.39,30.31,10,10,10,8,2,,0.00,0,,284
2012-2-9,30,22,14,25,16,10,93,77,68,30.28,30.14,30.00,10,10,10,15,6,21,0.00,4,,234
2012-2-10,30,20,10,27,13,0,86,72,58,30.34,30.07,29.91,10,9,4,22,13,31,0.00,7,Snow,331
2012-2-11,19,11,3,-2,-8,-11,56,42,30,30.52,30.46,30.41,10,10,10,22,13,29,0.00,0,,313
2012-2-12,30,19,8,1,-1,-2,67,45,27,30.44,30.37,30.22,10,10,10,15,10,22,0.00,0,,286
2012-2-13,28,21,14,27,18,3,93,75,54,30.14,29.94,29.79,10,7,1,15,6,20,0.00,7,Rain-Snow,174
2012-2-14,30,29,28,27,26,23,93,87,75,29.86,29.80,29.75,10,7,3,10,4,16,0.03,8,Snow,212
2012-2-15,42,34,26,34,29,25,100,85,70,29.98,29.94,29.89,10,6,2,7,4,,0.00,4,,161
2012-2-16,39,34,28,32,25,21,93,72,49,30.13,30.08,30.00,10,9,5,14,6,22,0.00,2,,284
2012-2-17,41,32,24,28,24,19,80,68,49,30.12,30.03,30.00,10,10,10,16,5,24,0.00,3,,240
2012-2-18,35,28,21,23,18,16,86,64,44,30.27,30.19,30.12,10,10,10,14,5,,0.00,1,,327
2012-2-19,37,27,17,23,19,14,93,71,48,30.19,30.16,30.12,10,10,10,8,2,,0.00,0,,179
2012-2-20,39,32,24,25,21,19,86,66,45,30.17,30.06,29.85,10,10,10,20,9,26,0.00,1,,148
2012-2-21,37,34,32,30,29,23,93,81,69,29.70,29.62,29.56,10,8,3,18,12,29,0.03,8,Rain,238
2012-2-22,41,34,26,28,25,21,86,72,53,29.62,29.50,29.41,10,10,10,7,3,,0.00,6,,259
2012-2-23,37,32,26,28,23,21,93,71,52,29.63,29.51,29.44,10,9,1,13,4,,0.00,4,Snow,75
2012-2-24,30,24,17,28,20,9,100,79,63,30.01,29.80,29.62,10,8,2,17,8,28,0.00,7,Snow,312
2012-2-25,28,19,10,16,11,5,86,71,59,30.24,30.16,30.01,10,10,7,21,9,26,0.00,2,Snow,284
2012-2-26,48,34,19,30,21,14,86,65,49,30.12,29.91,29.79,10,10,10,24,15,36,0.00,2,,193
2012-2-27,33,27,21,18,16,16,80,67,48,30.43,30.31,30.07,10,10,10,15,10,28,0.00,4,,288
2012-2-28,33,28,24,30,24,18,93,79,69,30.40,30.17,29.77,10,9,2,15,6,22,0.03,8,Rain-Snow,130
2012-2-29,41,36,30,37,32,28,100,91,81,29.60,29.39,29.29,10,6,0,23,15,30,0.34,8,Rain-Snow,217